Wind_Speed
10 10 10 11 11 11 10 11 10 8 8 8 7 5 5 6 4 3 3 2 2 6 6 5 7 7 8 8 6 4 6 6 6 8 6 2 3 1 1 2 3 3 3 3 4 4 4 4 4 4 4 4 4 3 3 3 4 4 5 6 6 7 8 8 8 9 10 10 10 10 10 10 10 11 12 12 13 13 13 13 13 13 13 13 13
10 10 10 10 10 11 11 10 9 9 9 7 7 6 5 5 3 2 2 1 2 4 5 5 6 6 8 10 9 6 6 6 6 8 7 3 3 4 1 0 2 2 2 3 3 4 4 3 4 4 4 4 4 3 3 3 4 5 6 7 7 8 9 9 10 11 12 12 12 12 12 12 12 12 13 14 14 15 15 15 15 15 15 15 15
12 11 10 10 9 10 10 10 9 8 7 7 6 6 5 4 2 2 2 2 4 4 4 7 6 7 7 9 9 8 8 9 9 9 9 6 3 5 3 1 1 2 2 3 3 4 4 4 4 4 4 4 4 3 2 3 4 5 6 7 8 8 10 11 12 13 14 15 15 15 15 14 14 13 14 14 15 15 16 16 16 16 17 17 17
14 12 10 10 9 10 10 9 8 7 7 6 5 5 4 3 3 3 2 3 5 3 3 3 2 6 7 8 9 9 9 10 11 11 10 6 3 4 4 2 2 3 3 3 3 4 5 5 5 4 4 3 3 3 2 3 4 5 6 8 10 10 11 13 14 15 16 16 16 16 16 16 15 14 14 14 15 15 15 16 16 17 17 18 18
13 13 11 10 10 9 9 8 7 7 6 5 5 4 2 2 3 3 3 2 4 4 4 3 1 4 6 6 6 7 8 10 10 12 11 7 5 4 3 3 4 3 3 3 3 4 5 6 5 4 4 3 3 3 2 3 5 6 7 10 12 13 14 15 15 16 17 17 17 16 16 15 14 13 13 13 14 14 15 15 16 16 17 17 17
12 12 11 10 10 8 8 7 6 5 5 4 5 5 2 3 3 4 3 2 3 5 6 6 6 5 6 7 6 6 8 10 10 9 12 12 9 6 3 4 4 3 3 3 1 3 4 5 5 5 4 3 3 3 1 3 6 8 10 13 15 16 17 16 16 16 18 17 15 14 13 12 11 11 12 13 14 14 15 15 16 16 17 17 17
11 11 10 10 9 7 7 6 6 5 5 4 5 4 3 4 2 3 1 1 5 5 4 4 7 5 4 7 7 6 5 8 9 9 12 12 10 8 6 4 3 3 3 2 1 2 3 5 5 5 5 4 3 2 2 2 6 13 15 15 16 17 17 16 16 17 17 15 12 11 11 10 10 11 12 13 14 14 16 16 16 16 17 17 17
10 9 9 10 9 7 5 6 6 4 4 4 3 3 2 3 1 1 2 1 6 6 3 4 8 6 4 6 6 6 7 6 5 9 12 12 11 11 9 6 4 4 4 3 2 2 2 3 4 4 4 4 4 3 4 4 6 12 15 16 16 15 16 16 16 16 16 12 10 9 10 10 11 12 13 14 15 15 16 17 17 17 17 18 18
10 7 8 10 9 8 5 6 6 3 4 4 3 3 3 3 1 1 1 2 5 4 4 6 9 7 6 7 6 6 7 3 3 7 11 12 11 12 11 9 7 7 6 4 4 4 1 3 3 4 4 5 6 5 7 10 11 11 13 16 16 14 15 16 16 16 14 11 9 9 10 11 12 13 14 15 16 17 17 18 19 18 18 19 20
9 6 7 9 9 7 6 6 5 3 5 5 3 3 4 3 1 1 2 3 4 4 5 5 6 7 8 8 5 3 3 1 3 6 7 8 10 12 13 10 9 8 7 6 7 6 3 4 5 4 3 4 7 6 8 13 15 14 14 16 18 16 14 15 16 14 12 9 8 10 12 13 14 14 16 17 18 19 19 20 21 21 20 19 20
10 8 7 7 7 6 5 5 4 4 4 5 4 3 3 3 1 1 4 4 3 3 3 4 4 3 7 9 7 4 5 4 4 5 8 7 8 12 14 12 11 10 7 6 9 10 7 6 7 6 4 5 6 6 8 10 13 14 13 15 18 17 14 14 14 11 9 8 9 11 13 15 15 16 17 18 19 20 20 20 21 21 20 20 20
11 8 5 5 6 5 5 5 4 3 4 4 5 3 3 2 2 3 4 4 4 6 7 6 7 1 3 4 8 5 5 5 4 8 9 8 9 8 10 13 14 12 9 7 9 10 10 7 7 7 5 5 7 7 8 10 11 12 13 15 16 14 12 12 11 10 9 9 10 12 15 15 15 15 16 16 17 17 17 17 18 19 19 19 19
11 7 4 5 6 5 5 4 4 4 3 3 3 2 3 3 2 3 4 5 5 6 6 5 5 2 2 3 7 8 5 4 5 9 7 6 9 6 6 10 14 15 10 9 11 8 8 8 10 10 6 7 10 10 8 9 10 11 12 13 13 11 10 10 10 11 11 10 11 13 15 14 13 14 14 15 15 16 17 17 18 19 18 18 17
11 8 6 5 4 5 4 3 3 4 3 2 2 2 3 3 3 3 4 6 6 5 1 2 5 2 5 3 5 8 7 7 7 9 7 4 5 5 6 5 8 14 12 9 10 6 7 9 10 11 9 9 11 11 10 10 10 9 10 9 10 10 9 9 10 11 11 10 11 13 13 12 12 14 14 15 16 18 19 19 19 19 19 18 16
10 9 8 6 4 4 4 3 3 4 4 2 2 3 3 3 2 3 4 6 6 6 4 3 5 6 3 1 2 4 5 6 7 6 3 3 3 5 4 7 9 3 5 6 8 3 6 6 7 9 11 11 11 11 11 10 8 7 7 7 8 9 9 9 10 10 10 9 11 13 12 11 12 14 15 16 18 20 20 19 19 18 18 18 16
10 9 8 6 5 5 5 5 3 4 5 3 4 4 4 4 2 1 2 6 4 5 6 4 7 7 1 2 3 1 1 2 4 4 7 4 2 5 3 5 7 5 4 6 5 4 8 4 5 10 13 13 11 10 9 7 7 7 7 6 7 9 9 9 9 9 9 10 12 13 11 11 13 15 16 17 19 20 20 19 18 17 17 17 16
10 10 9 8 6 4 5 5 4 4 4 4 5 5 4 4 3 1 0 4 5 6 6 5 8 6 3 2 3 1 1 4 5 3 7 7 1 2 4 2 8 3 2 10 4 5 6 4 7 11 12 10 9 8 8 8 7 7 7 7 9 9 9 10 10 9 10 11 12 12 11 12 13 15 17 18 20 20 19 18 18 17 16 16 15
11 10 8 8 7 5 5 5 4 4 3 4 3 4 3 3 3 2 0 1 2 6 6 5 9 8 3 3 2 2 3 3 4 1 5 9 5 4 6 4 9 5 2 8 7 3 3 6 9 8 7 7 7 7 8 8 7 7 8 8 10 10 9 10 10 10 11 12 12 12 12 12 14 16 17 19 20 20 19 18 18 17 15 15 15
11 9 7 8 8 6 6 4 4 4 4 3 3 4 3 2 3 2 1 1 1 5 6 6 11 10 5 6 6 5 6 2 1 1 3 7 6 5 5 4 4 5 4 6 5 2 3 5 6 6 5 8 8 7 8 8 7 8 9 9 10 10 10 10 10 11 11 12 12 12 12 13 14 16 17 19 20 19 18 19 18 18 16 15 15
10 9 7 8 8 7 6 5 4 4 4 4 4 5 3 3 4 2 1 2 2 3 4 5 7 6 4 7 8 5 3 2 3 3 1 2 6 5 2 3 4 5 5 4 4 3 5 5 4 4 8 12 11 8 8 9 8 9 10 10 10 10 10 11 11 11 12 12 12 12 12 13 14 16 18 19 19 18 18 19 19 19 19 17 15
9 9 8 7 7 7 6 6 4 4 5 5 5 5 3 3 3 2 2 3 3 2 3 5 4 2 4 6 6 6 5 1 3 4 3 1 3 3 1 3 5 7 5 5 6 4 4 5 5 7 10 14 13 9 8 8 8 9 10 9 10 10 10 10 11 11 12 12 12 11 12 13 14 17 18 19 18 18 18 18 19 20 20 19 15
10 9 9 8 8 7 7 6 5 5 5 5 4 4 4 3 3 4 4 4 3 3 4 5 4 4 5 5 4 4 5 2 2 3 2 1 2 5 4 2 4 7 8 8 6 3 6 6 6 9 10 12 11 8 8 8 7 10 9 8 10 11 9 10 11 12 12 11 11 11 12 13 15 17 18 18 18 18 17 18 19 19 20 20 17
11 10 9 9 9 8 7 6 6 6 5 5 5 4 4 5 5 6 5 5 4 4 5 6 6 6 6 8 8 6 7 3 4 2 3 1 1 4 7 6 6 8 10 9 5 4 7 8 7 9 8 8 8 5 6 7 8 10 10 9 10 9 8 10 12 12 11 10 10 11 12 13 15 17 17 17 17 17 17 17 18 19 19 19 19
11 12 11 10 10 9 8 7 7 6 6 6 6 5 4 5 6 6 5 5 5 4 5 6 7 6 7 8 8 7 7 3 3 2 5 3 2 3 6 8 7 8 11 8 6 6 6 7 8 8 7 7 8 5 5 7 8 10 9 9 8 8 9 11 12 10 9 10 11 11 13 14 15 16 17 17 17 17 16 16 17 18 18 18 18
11 12 11 11 12 11 9 9 8 7 7 6 6 5 5 4 4 4 5 5 5 5 5 7 7 7 7 7 7 7 8 5 2 5 6 4 5 5 6 8 5 7 11 10 9 8 6 8 9 9 8 5 6 5 5 5 8 10 9 8 8 8 10 11 10 9 9 11 11 12 14 15 16 16 17 17 17 17 16 16 17 17 17 16 17
12 12 12 11 12 12 11 10 10 8 8 7 6 6 6 6 4 4 5 5 5 5 5 7 8 8 8 8 8 8 9 8 6 8 6 7 8 8 6 6 6 7 8 10 10 6 4 8 10 10 6 4 5 7 6 5 7 9 8 7 8 9 9 9 9 9 10 11 11 12 14 15 16 17 17 17 17 17 16 16 17 16 16 15 15
13 12 13 13 12 14 14 12 11 11 10 9 7 7 8 8 7 6 6 6 5 6 6 7 8 8 9 9 9 8 9 9 8 10 7 4 7 8 6 3 4 4 4 8 9 2 2 6 8 5 2 3 6 7 6 5 6 8 7 7 9 10 9 8 9 11 11 11 11 12 14 15 16 17 17 17 16 16 16 17 17 16 16 15 14
15 14 14 14 13 13 15 14 13 13 12 11 10 9 9 8 8 8 8 8 7 8 8 8 8 8 9 10 10 9 9 9 9 10 10 6 2 2 3 3 2 1 1 4 5 3 4 7 4 3 3 4 7 7 6 6 7 8 6 7 11 12 9 7 10 12 10 10 11 12 14 15 16 16 16 16 16 16 16 17 17 17 17 16 15
15 14 15 15 14 14 13 14 14 14 13 12 12 11 10 9 9 10 10 9 9 9 8 8 8 9 10 10 9 9 8 8 9 9 9 9 7 5 6 5 2 0 0 1 3 2 5 8 5 2 3 4 6 6 7 9 10 7 5 8 11 10 7 8 12 12 10 11 11 11 13 14 15 16 15 15 15 15 16 16 16 16 17 17 15
13 14 15 16 16 16 14 14 14 15 14 13 13 13 12 12 11 11 11 10 10 10 9 9 9 9 10 10 10 10 9 8 9 10 9 9 8 8 7 5 3 2 3 1 3 4 5 8 7 4 5 7 7 7 8 10 11 9 7 7 9 8 8 12 14 12 10 11 10 10 11 13 15 15 14 14 14 15 15 15 15 15 16 16 16
15 14 14 15 17 17 16 15 14 14 15 14 14 14 14 13 12 11 12 12 12 11 10 9 10 10 10 11 11 11 10 10 10 10 10 9 9 9 8 6 5 4 6 5 2 4 6 8 9 8 9 10 8 8 10 10 10 9 8 7 9 10 11 14 14 13 11 10 9 8 9 11 13 14 14 14 14 15 15 15 14 14 14 14 15
17 16 14 14 15 16 17 16 15 15 15 15 15 15 15 14 13 12 13 13 14 14 12 10 10 10 11 10 11 11 10 10 11 11 11 11 11 10 9 9 7 6 7 8 5 6 9 9 10 11 10 10 9 8 9 9 9 9 10 11 12 13 14 15 15 12 10 9 8 6 8 10 12 13 14 14 13 14 15 14 14 14 14 14 13
17 17 17 16 15 15 16 16 16 16 17 16 15 15 16 16 15 14 13 12 12 13 13 12 11 11 11 10 11 11 11 11 12 12 12 12 12 12 11 10 9 8 9 10 7 6 9 9 10 11 10 10 10 9 8 8 9 10 11 13 14 15 16 16 12 8 7 7 6 5 6 8 10 12 13 13 13 14 14 14 14 14 14 14 13
17 17 18 18 17 16 16 16 16 17 18 18 17 16 16 17 16 14 14 13 13 13 13 13 13 12 12 12 12 12 12 13 13 13 12 12 12 12 11 10 9 7 8 9 6 5 7 8 10 10 9 9 9 9 8 9 10 10 10 12 13 14 15 14 9 6 6 6 5 5 5 7 9 11 13 13 12 13 13 13 14 14 15 15 14
19 19 18 18 19 19 18 18 17 17 17 18 18 17 16 16 16 15 14 14 14 15 14 14 13 12 12 13 13 12 12 13 14 13 12 12 11 11 11 11 11 8 5 5 5 5 6 7 8 8 7 8 9 9 10 11 12 12 11 11 11 12 14 14 13 10 7 6 5 5 5 6 8 10 11 12 12 12 12 13 14 15 15 16 16
18 19 20 19 19 20 20 19 19 18 16 16 16 17 17 16 16 16 16 15 15 14 14 14 13 12 12 13 13 13 12 14 14 13 13 13 12 11 11 10 10 10 8 6 6 6 6 7 7 7 8 11 12 11 12 13 14 13 12 11 10 10 11 11 11 11 6 4 5 7 5 5 7 8 9 10 11 12 12 13 14 15 16 17 17
18 17 19 20 19 19 20 19 19 18 17 17 16 16 17 17 17 17 17 16 16 15 14 14 13 13 13 13 13 12 12 13 13 13 13 13 12 11 11 11 11 10 9 8 7 6 6 7 8 10 12 12 13 13 13 13 14 14 13 12 12 10 10 9 7 5 2 2 7 10 7 5 7 6 8 9 10 11 11 13 14 15 16 17 18
18 17 17 19 19 19 19 18 18 18 18 18 18 17 17 17 17 17 17 17 17 16 16 15 14 14 14 13 14 13 12 12 13 12 12 11 11 12 11 9 9 9 7 6 7 7 7 8 10 12 13 11 13 15 14 13 13 13 13 13 13 13 11 10 8 4 2 4 8 12 11 7 5 4 6 7 9 11 11 13 14 15 15 16 17
19 18 18 18 18 18 17 17 17 17 17 17 18 18 18 18 18 18 17 17 16 16 16 16 15 14 13 13 14 13 12 12 13 13 11 9 9 10 10 8 7 8 7 6 7 8 9 10 10 11 11 11 12 14 14 13 11 11 12 12 14 14 12 11 10 6 4 5 5 9 11 7 4 2 4 5 7 10 10 12 14 15 16 16 16
18 18 17 16 16 17 17 17 17 17 16 16 17 18 19 19 18 18 17 17 16 16 15 15 14 13 13 12 10 9 9 11 12 12 10 7 6 6 6 5 5 8 9 8 8 8 9 9 10 10 11 12 12 12 12 12 11 10 11 11 13 14 13 14 13 9 5 5 3 6 11 9 5 2 2 3 6 8 9 12 13 14 16 15 15
13 13 13 14 14 13 15 18 18 15 13 12 13 15 17 19 18 17 17 16 16 16 14 14 14 12 11 10 9 10 10 10 11 11 10 9 9 9 8 8 7 9 9 7 7 8 8 8 10 12 12 13 12 11 11 11 11 12 12 12 13 14 14 14 12 8 5 4 2 6 11 10 7 4 2 1 4 7 8 10 13 14 15 15 15
13 10 11 14 13 8 8 13 15 15 14 13 14 14 15 18 18 18 17 16 13 10 9 9 9 8 8 8 9 12 12 10 9 11 11 12 13 14 13 13 12 12 11 10 9 8 7 9 10 11 12 13 13 11 11 11 12 13 14 13 13 13 10 10 9 7 4 3 2 6 9 9 8 6 4 4 1 4 7 9 11 13 14 14 14
16 17 14 14 14 11 8 8 11 15 19 19 19 17 14 14 15 17 18 15 11 8 8 7 6 6 7 8 10 12 12 11 11 11 12 12 13 15 15 15 15 14 14 13 12 10 10 11 12 11 12 13 13 12 12 11 12 13 13 11 10 9 7 5 6 6 3 2 3 4 5 6 7 6 7 9 5 3 5 7 9 11 13 14 13
13 16 16 14 14 14 12 9 7 10 15 16 17 17 16 15 14 14 15 11 7 8 10 10 9 8 8 9 10 10 9 9 11 11 12 13 13 14 13 13 13 14 15 15 15 15 14 13 14 15 15 14 15 14 13 13 14 13 12 10 9 8 8 6 6 8 5 3 4 5 5 6 8 9 10 10 7 3 2 4 7 9 11 13 13
13 13 14 13 12 11 10 8 5 4 7 11 14 15 15 16 16 15 15 11 7 9 12 11 11 13 12 11 11 10 9 9 11 13 14 13 13 13 13 12 12 13 15 17 17 17 16 16 18 19 17 15 16 17 17 16 15 14 13 13 11 10 10 9 10 10 7 3 4 6 5 7 9 11 12 10 7 4 2 2 4 6 9 11 12
12 13 13 14 14 11 9 10 8 5 6 8 10 10 11 13 14 15 17 13 8 10 14 13 12 15 14 12 12 12 12 11 13 14 14 13 12 13 14 14 14 14 14 16 17 16 17 17 18 20 19 17 17 18 18 18 18 16 16 15 13 11 11 10 10 9 6 4 4 4 5 7 11 12 12 10 8 6 3 0 2 4 7 9 11
11 12 13 14 14 13 11 10 7 5 7 7 8 8 8 10 11 12 14 13 10 10 14 14 14 15 14 12 11 12 12 13 12 11 12 12 12 13 15 15 16 16 18 19 18 17 17 17 18 20 22 22 21 20 20 22 22 21 20 19 16 13 10 9 8 7 6 5 4 4 4 7 10 12 14 13 10 8 6 3 2 1 5 7 10
12 13 13 13 14 16 17 13 7 5 6 7 8 8 8 9 10 9 10 11 9 8 10 11 12 13 12 12 12 11 11 12 13 12 12 13 13 13 14 14 14 17 19 21 20 18 17 17 18 20 21 21 22 21 21 23 24 22 21 18 15 13 11 8 7 8 7 5 6 5 4 5 6 7 13 16 12 10 9 7 4 1 3 6 9
12 14 16 17 16 16 17 13 8 7 8 8 8 9 9 9 9 7 6 6 8 8 8 9 10 11 10 10 11 12 10 10 13 14 13 13 13 13 13 13 13 15 17 19 20 19 18 19 20 20 19 18 19 20 20 23 24 22 17 15 15 14 12 9 7 9 8 7 7 6 5 6 5 3 8 13 13 12 11 10 7 4 3 6 7
10 12 16 20 21 20 18 15 12 9 8 8 7 8 8 8 8 7 5 5 7 9 9 9 9 10 11 9 10 11 11 11 13 15 14 14 14 13 12 13 14 14 14 15 16 16 17 19 20 19 18 18 18 20 23 26 28 24 19 19 20 16 12 10 8 7 8 7 7 6 5 5 2 4 5 5 7 11 11 10 9 7 5 5 5
12 13 13 14 16 15 11 8 10 11 10 8 6 6 7 6 6 6 4 3 4 5 6 7 7 7 8 8 7 7 8 9 12 13 14 14 13 11 11 12 14 13 12 11 13 14 16 18 18 18 17 17 17 20 22 26 28 26 22 23 23 18 13 12 12 10 6 6 8 8 5 1 3 5 4 2 1 4 8 9 8 7 6 4 2
Wind_Direction
178 177 176 182 184 181 180 184 193 188 182 194 196 194 204 209 228 240 240 281 209 185 176 163 169 172 164 157 154 172 176 150 157 182 185 167 126 87 312 254 258 241 235 244 235 232 236 234 236 237 242 251 258 267 282 296 312 325 328 334 335 331 327 325 325 324 321 318 315 311 306 300 294 289 284 281 278 277 275 273 271 268 265 261 260
182 182 177 183 182 183 187 183 184 183 186 189 179 187 195 189 207 232 213 212 232 190 175 197 186 164 169 163 151 156 160 155 160 161 170 181 111 76 46 281 256 241 234 235 236 236 232 229 231 233 236 240 254 268 280 301 320 329 325 323 323 323 322 323 324 324 321 317 314 312 308 303 298 293 288 285 281 278 276 275 274 272 271 267 264
187 191 180 181 188 186 182 179 182 182 179 170 172 199 193 177 193 224 214 208 240 203 187 230 201 156 160 154 148 157 163 165 162 155 161 171 114 75 80 115 222 222 223 225 225 223 219 220 223 227 233 244 257 273 295 312 321 318 318 317 313 318 325 326 325 324 319 316 312 308 304 300 296 292 288 286 284 282 281 280 279 277 274 273 271
178 187 182 181 188 182 179 182 176 171 173 168 182 198 183 191 185 188 203 207 248 231 170 252 228 162 160 150 156 167 173 173 161 150 149 159 152 102 92 114 179 189 199 207 215 215 213 214 215 221 227 242 264 279 303 318 316 308 313 317 314 316 323 323 324 325 322 318 313 306 302 299 294 289 286 285 285 285 285 285 283 281 278 275 272
168 179 185 181 183 178 178 179 166 171 176 159 178 183 165 197 180 212 245 224 240 219 187 209 173 167 158 140 146 151 164 170 154 141 141 156 177 154 109 115 138 141 167 183 209 223 224 221 219 224 232 242 266 283 318 318 307 305 313 318 317 316 319 320 321 325 327 323 316 308 303 298 294 290 290 290 289 289 289 289 288 287 285 281 278
162 181 188 179 180 182 177 172 168 172 163 151 172 179 194 204 206 261 278 309 249 210 211 198 162 175 166 140 146 162 164 149 140 144 148 154 166 184 169 133 136 133 149 149 175 235 239 239 237 235 242 253 264 279 310 315 315 317 319 318 317 316 315 315 319 327 330 326 317 310 304 298 295 295 297 298 297 296 294 294 294 293 291 288 286
173 193 187 175 178 182 175 169 172 166 163 182 186 182 219 201 204 292 218 289 268 231 224 182 162 172 152 136 151 180 162 123 135 153 151 149 153 170 179 171 180 176 181 178 169 245 255 250 251 251 255 262 269 288 262 271 326 324 317 314 314 313 310 311 318 328 331 325 315 310 306 301 301 303 305 303 302 303 301 299 298 295 294 292 291
191 188 176 178 180 176 173 167 171 167 167 188 187 179 215 179 134 317 178 226 283 255 228 173 164 156 143 140 140 146 128 119 174 167 153 155 157 165 174 186 204 209 221 238 233 232 275 273 264 268 279 285 290 295 269 268 317 319 310 307 310 309 308 312 316 324 328 319 309 311 314 314 312 311 309 307 308 308 305 302 300 298 296 295 295
186 177 177 181 181 174 166 164 175 179 168 174 177 173 181 179 157 332 263 316 303 257 222 196 167 156 172 157 131 136 133 142 202 157 151 160 170 182 187 190 192 203 217 235 255 244 254 288 290 299 307 313 309 287 280 304 320 318 311 306 309 309 306 309 309 317 323 312 305 317 324 323 319 315 311 310 311 310 308 306 303 301 298 297 299
170 174 177 172 177 176 159 160 171 171 174 184 199 188 177 178 171 321 274 294 310 306 288 243 181 161 172 157 129 143 157 156 131 132 150 168 184 186 186 197 190 188 208 217 239 252 265 281 279 279 286 307 314 279 267 308 321 317 317 313 311 309 302 301 304 314 320 307 311 325 329 329 325 320 316 314 314 312 310 309 306 303 301 298 299
163 160 157 160 167 154 150 163 160 163 187 198 198 201 186 179 190 224 267 282 284 297 290 260 252 175 144 144 141 169 199 166 147 180 180 183 203 192 183 195 194 193 213 215 225 240 245 267 279 266 275 298 310 285 250 284 309 305 313 321 320 313 303 301 304 312 318 315 324 330 331 331 326 320 319 318 318 317 315 313 310 307 304 300 297
164 155 143 166 169 143 152 168 154 168 207 205 193 205 200 200 237 241 273 278 260 252 225 242 286 330 105 144 148 165 208 167 199 222 196 186 204 219 206 193 194 200 209 216 221 236 237 251 280 271 281 279 275 279 248 259 291 297 304 321 328 325 318 314 314 320 327 329 331 332 332 329 324 323 325 327 327 329 328 324 320 316 311 306 299
168 162 138 155 163 149 157 164 155 171 199 187 168 187 190 203 267 262 277 288 280 270 231 256 313 120 163 249 161 161 193 186 233 228 210 204 189 213 243 199 201 201 196 220 218 227 246 258 279 270 269 267 264 274 262 260 284 293 302 319 332 338 335 328 325 327 330 332 331 331 330 328 331 337 338 340 342 343 342 338 332 327 321 314 307
172 171 158 159 167 154 157 168 156 163 180 155 138 180 193 221 293 277 284 317 307 304 278 252 311 259 206 246 176 175 190 197 237 228 203 220 210 218 232 231 235 201 192 231 214 215 270 267 271 255 250 270 268 273 280 282 280 276 288 310 330 335 331 326 325 325 325 327 329 328 328 332 343 347 346 346 348 348 345 342 337 333 329 324 317
178 174 168 181 189 164 164 179 160 157 172 166 193 207 214 238 303 292 292 329 301 296 317 254 307 310 225 226 214 180 189 213 254 258 155 150 267 325 293 307 343 137 173 265 214 220 305 262 257 254 255 273 271 274 287 297 290 277 286 304 323 325 319 315 315 316 319 323 325 326 327 334 343 345 345 347 348 347 345 343 339 335 335 332 325
183 181 178 188 180 164 172 178 173 165 169 176 198 208 221 231 261 299 331 360 331 316 343 338 343 343 345 335 297 137 115 262 295 328 32 61 207 17 329 286 10 74 54 353 228 269 324 269 270 279 266 266 267 277 296 306 296 289 300 310 316 323 326 324 324 321 321 325 327 329 329 332 337 339 344 347 346 348 348 347 345 340 337 337 334
181 183 184 181 170 176 174 164 180 179 179 198 203 207 215 219 230 224 283 14 355 337 343 345 347 327 273 320 316 68 64 338 360 354 6 4 266 11 273 261 34 65 54 18 340 300 330 324 313 285 255 256 269 282 301 308 294 288 304 311 308 318 330 333 333 328 324 327 329 331 330 329 332 336 342 345 347 350 353 353 352 348 342 340 340
178 184 184 174 168 183 179 166 183 184 200 219 210 214 210 207 209 180 213 28 18 342 335 345 354 346 312 293 290 91 90 350 6 327 335 348 336 325 295 322 23 24 22 2 345 337 324 318 326 300 246 253 269 273 299 314 302 291 300 311 310 313 323 327 328 328 326 328 330 330 329 326 330 336 341 345 348 354 357 358 358 355 348 343 344
177 182 174 167 173 181 184 186 185 179 204 221 209 215 208 197 195 150 43 326 48 354 352 356 353 1 9 335 330 51 68 55 92 142 328 340 329 319 316 322 358 357 334 323 328 344 282 291 335 344 298 283 283 282 304 315 302 295 300 309 315 312 316 321 322 325 326 326 328 328 326 326 330 335 341 345 350 358 1 2 3 2 356 348 344
179 180 169 175 183 178 185 197 199 191 198 212 212 212 196 171 180 164 216 283 342 340 339 337 341 4 25 359 347 354 30 93 136 116 125 334 323 306 319 360 341 325 308 287 301 302 277 282 303 316 296 297 304 298 297 302 295 297 297 297 311 318 318 321 321 322 325 325 325 325 325 328 332 337 342 346 351 1 4 4 7 6 3 356 347
183 184 181 188 190 183 194 199 201 201 200 213 210 198 190 170 172 193 227 260 302 288 297 314 325 2 353 351 341 323 334 23 139 113 120 192 302 307 354 5 329 319 297 278 295 299 292 292 271 265 280 289 291 281 279 290 297 306 304 299 314 324 324 323 324 323 324 326 325 325 327 330 334 339 343 346 352 2 4 3 5 6 5 3 355
189 191 190 193 195 194 203 203 203 213 211 218 213 190 196 207 199 204 220 237 252 256 279 298 293 296 309 299 286 299 302 271 146 92 60 199 271 306 325 333 305 308 308 299 297 304 309 304 269 260 274 285 283 282 290 295 307 313 310 308 313 319 324 325 328 326 326 330 330 330 331 332 337 340 342 346 354 2 3 359 1 3 3 5 3
192 196 196 199 202 201 207 210 209 213 213 217 222 211 211 231 226 208 217 234 237 258 273 280 284 282 284 278 275 273 262 241 93 51 287 242 285 302 306 316 305 301 314 310 283 277 296 304 293 270 268 286 288 301 318 313 316 311 298 293 303 314 326 331 331 330 332 336 337 334 332 334 338 340 342 348 354 360 0 357 357 360 1 5 7
196 198 199 201 206 206 209 214 211 209 213 216 221 225 220 224 222 211 217 228 228 246 268 276 278 274 278 289 292 286 282 307 74 267 268 277 312 291 301 320 322 309 317 315 294 286 280 291 296 267 245 270 280 283 316 310 305 310 299 286 295 315 326 333 334 334 341 343 339 334 332 335 339 341 344 348 353 357 357 355 354 357 1 4 8
202 201 199 202 206 207 209 212 215 213 214 217 220 228 230 218 213 224 226 225 234 246 263 275 278 279 282 290 295 289 288 295 256 257 268 258 254 260 292 305 293 294 308 312 302 286 288 301 283 246 222 238 276 296 331 315 288 298 305 286 288 312 324 334 336 336 344 343 338 336 336 338 339 342 346 347 352 355 355 355 354 357 3 7 9
204 202 199 202 203 203 208 212 214 215 217 221 222 221 229 231 228 240 242 237 242 251 263 271 272 276 276 277 287 294 298 294 262 254 237 182 198 225 254 281 277 284 300 307 294 259 282 292 251 227 218 232 298 325 344 333 284 288 307 295 291 306 318 330 335 335 341 342 342 341 340 340 340 343 347 349 354 356 355 356 356 359 4 9 12
204 205 202 203 203 202 204 209 212 214 217 218 219 221 227 233 232 235 247 251 248 249 259 270 273 276 278 280 284 285 292 295 286 281 275 186 181 209 216 242 282 294 301 304 303 314 336 280 235 228 243 259 315 322 317 308 275 279 301 297 291 296 297 314 336 336 335 338 340 340 339 340 342 344 348 353 357 358 358 357 358 1 5 9 13
201 205 206 204 206 206 202 204 210 213 217 217 216 222 226 228 231 236 243 248 250 251 255 264 272 279 280 279 279 277 280 288 292 298 302 306 291 235 260 282 294 327 320 300 314 12 330 289 264 285 277 280 311 305 280 280 274 272 287 292 288 284 277 298 332 332 324 326 330 335 338 340 343 345 349 357 1 1 1 360 360 3 5 8 12
200 203 207 205 207 210 207 206 208 208 213 218 216 218 220 221 226 234 239 243 250 253 255 261 266 275 279 278 279 279 282 288 291 293 298 306 310 299 287 281 279 317 201 291 302 305 304 302 297 282 276 296 310 301 278 283 291 281 273 292 289 277 273 304 320 319 311 311 316 327 336 339 344 349 353 360 4 4 5 5 5 5 6 10 11
211 205 201 203 206 210 213 214 213 209 210 217 219 218 219 221 225 232 236 240 248 250 251 258 264 270 275 280 285 287 289 292 291 290 293 300 301 294 281 262 252 235 189 205 286 273 295 316 316 312 317 313 308 308 292 289 301 286 257 292 304 288 291 303 304 300 298 300 305 318 334 342 349 354 359 5 7 8 9 12 13 12 12 14 14
219 214 202 200 203 206 212 217 219 216 212 215 220 220 220 223 226 231 235 235 239 244 246 250 258 264 265 269 277 282 285 285 286 290 294 295 290 288 285 272 258 239 215 208 237 269 288 312 315 311 313 309 303 302 293 291 304 291 261 281 304 294 291 297 294 285 284 291 295 310 332 348 356 0 6 10 11 12 13 16 19 21 21 20 19
216 218 216 211 206 204 209 215 219 219 215 216 219 220 221 222 225 230 236 235 232 234 240 245 252 261 264 266 269 271 275 278 282 286 287 288 285 279 278 273 263 250 236 219 215 268 282 296 308 308 310 311 311 305 294 292 307 310 295 295 304 301 293 291 286 275 273 280 286 307 335 351 1 6 12 16 16 15 16 18 20 24 27 28 26
214 214 216 220 218 212 209 213 218 219 217 215 217 220 220 221 226 232 240 242 234 230 235 242 248 258 265 269 271 272 274 276 278 281 282 283 284 279 272 263 256 255 252 236 224 262 286 297 307 310 313 314 315 315 310 303 305 311 309 306 308 305 296 294 291 279 271 273 278 302 334 352 3 8 15 21 21 20 19 16 18 25 30 33 31
216 215 215 217 221 222 219 218 218 221 221 216 216 221 222 221 224 230 239 241 235 232 236 244 251 258 262 266 271 270 269 271 269 270 274 277 281 287 290 289 284 272 252 237 230 259 289 303 312 317 321 318 316 316 310 304 301 301 303 307 308 309 312 324 341 334 290 274 280 299 328 355 0 6 16 23 25 25 21 15 20 27 31 35 34
218 218 219 218 219 222 225 225 223 225 225 218 215 220 225 226 225 227 236 238 234 232 236 244 251 255 256 260 266 265 266 271 270 271 277 282 289 295 299 306 312 311 293 265 263 269 277 294 308 315 319 317 315 309 301 300 302 300 300 307 313 319 327 342 4 3 320 278 283 297 317 350 356 3 15 24 29 28 23 21 27 32 32 35 37
221 219 220 223 222 220 222 227 229 230 230 225 222 223 227 230 230 229 234 239 241 238 238 243 249 253 257 261 264 265 269 275 278 282 286 287 294 300 304 312 316 315 313 302 291 287 292 304 307 303 307 311 308 306 304 303 304 302 300 307 321 331 337 345 3 9 343 280 294 306 311 336 346 360 13 23 31 31 29 31 36 37 35 34 36
227 225 218 219 225 225 222 224 228 231 232 230 229 227 228 232 232 232 234 238 242 243 243 246 249 252 259 263 267 271 276 280 284 290 292 296 306 311 316 326 324 313 311 312 310 305 301 305 306 304 308 311 306 306 311 308 307 308 304 308 320 324 332 340 347 354 333 285 307 299 289 311 327 350 13 20 31 35 37 41 42 43 39 35 35
233 233 224 220 225 228 228 226 227 230 231 231 233 232 232 235 235 234 235 236 238 240 243 245 250 254 256 261 266 269 273 277 281 286 292 307 316 305 301 319 331 323 314 313 315 311 300 293 296 301 304 306 304 306 312 309 306 309 306 307 313 311 318 335 342 343 334 332 311 281 269 286 307 338 9 14 28 37 41 46 47 46 44 37 34
230 234 230 224 223 225 229 231 232 233 233 233 234 234 235 239 241 240 239 238 237 236 237 240 245 248 250 255 261 265 269 272 274 280 288 304 315 307 301 305 315 314 307 304 305 304 303 299 297 300 301 303 303 303 309 310 301 300 304 305 307 306 313 327 334 335 325 338 321 259 253 267 273 310 356 4 27 36 41 47 48 48 47 42 35
232 236 237 235 233 229 228 230 232 234 238 240 239 240 241 240 244 247 246 244 242 239 237 239 242 246 248 251 252 257 267 268 269 278 285 284 289 300 300 291 301 309 307 305 293 286 300 306 301 299 297 296 295 292 302 310 301 295 302 306 306 307 311 315 321 325 317 334 343 236 239 247 240 240 326 360 26 31 37 45 48 47 47 46 41
251 233 229 237 242 231 222 227 230 229 236 246 245 246 248 244 245 252 255 254 252 249 247 244 241 245 252 252 248 249 255 259 264 266 261 254 258 267 266 264 283 299 298 289 271 268 286 296 295 298 294 290 288 282 284 291 289 292 301 305 305 306 306 302 305 315 325 343 347 216 223 231 230 232 256 344 28 25 31 41 46 46 44 44 45
290 260 231 231 238 238 230 234 235 230 231 239 239 244 257 253 246 249 257 264 265 260 265 268 256 253 265 267 263 263 260 258 263 263 260 260 262 263 262 264 273 282 279 268 257 256 266 270 277 289 291 291 293 289 283 279 280 291 301 304 304 306 308 302 302 319 338 332 264 208 211 223 230 230 212 186 176 8 19 34 42 44 42 40 42
305 296 276 254 242 245 256 254 243 233 234 237 235 239 256 257 243 241 247 258 268 264 268 283 275 263 268 264 267 277 275 266 265 267 271 274 270 265 267 267 268 269 267 264 263 261 257 255 260 268 276 286 292 297 300 291 282 289 297 299 298 298 303 304 304 314 314 271 263 243 224 220 215 202 189 192 214 319 4 30 40 43 40 37 36
294 296 291 277 256 250 256 261 252 242 247 249 241 240 252 253 244 243 244 245 261 268 263 262 256 251 254 254 258 269 268 260 263 269 274 278 276 273 275 274 269 263 260 261 264 266 262 257 260 266 269 273 278 286 291 283 277 283 289 288 285 283 282 271 271 286 285 256 268 271 242 209 194 189 196 213 236 276 335 28 39 39 33 31 32
264 273 282 286 274 259 249 245 237 229 243 246 241 243 254 256 250 249 247 240 244 263 265 263 255 251 254 259 259 254 248 254 268 275 278 279 279 279 283 283 277 268 262 259 259 265 268 266 267 269 270 271 276 279 277 271 269 271 276 277 271 267 268 262 263 275 278 253 257 263 244 210 195 192 204 225 241 239 240 25 39 31 24 27 32
267 270 274 278 277 270 257 255 255 233 215 224 234 241 249 254 253 252 249 240 231 251 264 266 257 253 254 257 260 259 259 263 271 278 282 283 281 281 282 281 276 270 266 263 261 263 269 270 270 271 270 270 272 273 272 269 264 259 263 268 262 253 259 272 278 273 254 237 244 250 243 220 202 196 203 219 230 229 230 253 49 23 21 29 35
275 274 271 267 269 270 268 265 258 222 203 211 224 230 234 243 246 247 246 239 229 243 260 264 264 263 259 254 258 267 275 278 275 270 270 272 274 277 279 279 277 274 272 273 272 271 272 275 275 274 272 270 267 266 269 270 264 260 264 267 261 252 254 268 272 250 230 225 216 223 254 232 208 199 199 206 222 231 225 212 194 32 32 38 39
271 268 267 264 262 265 266 262 247 216 209 207 210 216 225 235 237 237 244 245 240 243 253 261 270 274 271 270 274 278 285 291 285 270 263 268 273 276 274 272 274 276 276 278 279 277 276 277 277 277 278 276 269 264 267 269 264 262 266 265 254 246 244 244 238 229 222 210 200 211 254 249 228 207 194 198 216 231 222 212 209 169 80 58 41
292 283 275 269 264 265 263 249 221 214 216 202 200 209 215 224 229 226 235 252 254 251 251 256 260 261 266 280 285 277 271 279 280 272 270 275 278 276 270 269 272 275 277 281 282 281 279 278 277 278 277 275 269 263 263 265 261 258 261 258 248 239 229 216 215 219 215 205 200 206 229 243 247 202 180 193 215 233 227 208 202 195 128 89 52
331 315 297 282 269 262 257 240 218 216 215 198 195 206 208 214 221 216 217 248 258 257 258 259 256 255 258 268 280 276 266 262 266 267 271 279 284 281 275 274 276 275 278 284 285 283 283 282 281 280 275 271 267 261 258 259 259 257 255 251 249 242 223 209 210 206 197 199 206 209 224 245 226 130 146 185 218 232 228 210 204 203 160 111 70
14 3 350 321 285 262 252 237 210 199 193 186 192 203 200 204 212 208 207 237 264 272 279 281 280 280 279 279 285 286 271 261 264 270 276 285 293 293 285 281 279 278 280 281 277 278 283 283 282 282 280 276 268 260 260 262 262 260 255 248 247 245 230 213 204 193 181 195 207 205 211 255 62 94 110 73 94 207 206 203 214 212 174 134 100
Height
843 843 843 842 842 842 842 843 843 843 842 842 842 842 842 842 842 842 842 841 840 841 841 840 841 840 841 841 842 842 842 844 844 844 844 845 846 846 847 847 847 847 846 846 846 846 846 847 848 849 849 849 848 849 849 849 848 848 847 846 846 845 845 844 844 843 843 842 842 841 840 839 839 838 838 837 836 836 835 834 833 833 832 831 831
843 843 843 842 842 842 843 843 843 843 843 843 843 843 842 842 843 842 843 842 841 841 841 840 840 840 840 841 841 842 842 843 844 844 844 845 846 846 847 847 847 847 847 846 846 846 846 847 848 848 849 849 849 849 850 849 848 847 846 846 845 844 844 843 842 842 842 841 840 840 839 838 837 836 836 835 834 834 833 832 832 831 830 830 829
843 843 843 843 843 843 843 844 843 843 843 843 843 842 842 843 843 843 844 843 842 841 841 840 840 840 840 840 841 841 842 842 843 844 844 844 845 846 846 846 847 847 847 846 846 846 846 846 847 847 848 848 848 849 849 849 848 847 846 845 844 843 843 842 841 841 840 840 839 838 837 836 835 834 834 833 832 832 831 830 829 829 828 827 827
843 843 843 843 843 843 844 843 843 843 843 843 843 843 843 844 844 844 844 844 842 842 842 840 840 841 840 840 840 840 841 841 842 843 843 843 844 844 844 845 846 846 846 846 846 846 846 846 846 846 847 848 848 848 849 848 847 847 846 845 844 843 842 841 840 839 839 838 837 836 835 834 833 833 831 831 830 829 829 828 827 826 825 825 826
842 842 843 844 844 844 844 843 843 843 843 843 843 843 843 844 844 844 845 844 843 842 842 841 841 840 840 840 840 840 840 840 841 842 843 843 843 843 843 844 845 845 845 845 846 846 846 846 846 846 846 847 847 848 848 848 847 846 846 845 843 843 842 841 839 838 837 836 836 834 833 833 832 831 830 829 828 827 826 825 824 823 822 822 823
841 842 843 844 844 844 844 843 843 843 843 843 843 843 843 844 844 844 844 844 843 842 841 841 841 840 839 840 840 840 839 839 840 841 841 842 843 842 842 844 845 846 846 846 846 847 847 847 847 847 847 847 846 847 848 848 846 845 845 844 843 842 841 840 839 837 836 835 834 833 832 831 830 829 828 827 826 826 825 823 822 821 820 819 820
841 843 844 844 844 844 844 843 843 843 843 843 843 843 844 844 844 844 844 843 842 842 841 840 841 840 839 840 840 840 839 839 840 840 841 841 843 843 842 843 845 846 846 846 846 847 847 848 848 847 847 847 846 846 847 848 846 844 843 843 842 842 840 839 838 836 835 834 833 832 831 831 829 828 827 826 825 824 823 822 821 819 818 817 817
842 843 844 843 844 844 843 843 843 843 843 843 843 843 844 844 844 844 843 843 842 842 842 841 840 840 840 840 840 839 839 840 840 840 840 840 842 843 843 844 845 846 846 846 846 847 848 848 848 848 848 848 847 846 845 846 848 846 843 841 841 841 839 838 836 835 834 833 833 832 831 830 829 828 826 825 824 823 822 820 819 818 816 815 814
843 843 843 843 843 843 843 843 843 843 843 843 843 843 844 844 844 843 843 843 842 841 841 840 840 840 840 840 840 840 840 840 840 840 840 841 842 843 844 845 846 846 846 846 846 847 848 848 848 848 848 848 848 846 844 843 846 847 844 841 840 840 839 837 836 835 833 832 832 831 830 829 828 827 825 825 824 822 821 819 817 816 815 813 812
842 842 842 842 842 842 842 843 843 843 843 843 843 843 844 844 844 843 843 843 842 840 839 839 839 839 839 840 840 840 840 840 840 840 841 842 842 843 843 844 845 845 846 845 846 846 847 847 848 848 848 848 848 847 845 843 842 844 843 841 839 838 838 836 835 834 832 832 831 830 829 828 827 826 825 824 823 821 820 818 816 814 813 812 811
841 842 841 842 842 842 842 842 842 843 843 843 843 843 844 844 844 843 843 842 842 840 839 839 838 838 838 839 840 841 841 841 841 841 842 842 843 843 843 843 843 844 845 845 845 846 846 846 847 847 847 847 848 847 845 844 842 841 841 839 838 837 836 835 834 833 832 831 830 829 829 827 826 825 824 823 822 820 819 817 814 812 811 810 809
840 840 841 841 841 841 842 842 842 843 843 842 843 843 843 844 844 844 843 842 842 840 839 839 838 838 838 839 840 840 841 841 841 841 841 841 842 843 842 842 842 843 844 844 845 845 845 845 845 846 846 846 847 847 845 842 842 841 840 838 837 836 835 834 833 832 831 830 829 829 828 826 826 825 824 822 821 820 818 816 813 811 809 809 808
839 839 840 840 840 841 841 842 842 843 842 842 842 843 843 843 843 843 843 842 841 841 840 839 838 838 838 839 839 839 840 841 841 840 840 841 841 842 842 842 841 841 842 843 843 844 844 844 844 845 845 845 845 846 845 842 841 840 839 839 837 836 835 834 833 832 831 830 829 828 827 826 826 824 823 822 820 819 817 815 813 810 808 807 806
838 839 839 840 840 840 841 842 842 842 842 842 842 843 843 843 843 843 842 842 841 840 840 839 839 838 838 838 838 839 839 839 840 839 839 841 841 841 842 843 842 840 841 842 842 844 844 843 843 844 844 845 844 844 845 844 842 840 839 838 837 837 835 834 833 832 831 830 829 828 827 827 825 824 823 821 820 818 816 814 812 809 807 806 805
837 838 839 839 840 840 840 842 842 842 842 842 842 843 843 842 843 842 841 841 840 840 840 839 840 839 838 840 839 839 841 839 838 839 839 841 842 842 842 844 844 841 840 842 842 843 843 843 843 843 843 843 844 843 843 843 843 842 840 839 838 837 835 834 834 833 831 830 829 829 828 827 825 824 822 821 819 817 815 813 811 809 807 805 804
836 837 838 839 839 839 840 841 842 842 842 842 842 842 842 842 842 842 841 841 840 839 840 839 840 839 840 841 838 840 846 842 838 838 840 842 842 842 843 844 843 842 841 842 842 842 843 843 842 843 843 843 843 843 842 841 841 841 840 839 838 837 836 835 834 833 832 831 830 829 827 826 825 823 822 820 818 816 815 812 810 808 806 805 803
836 837 838 838 839 839 840 841 841 842 842 842 842 842 842 842 842 842 842 842 841 840 841 840 840 840 840 841 842 845 848 842 840 841 841 842 842 841 843 843 842 841 841 842 842 843 842 842 842 841 842 842 842 842 841 841 841 840 839 838 838 837 836 835 834 833 832 831 829 828 827 826 824 823 821 820 818 816 814 812 810 808 806 805 803
835 837 837 837 839 839 839 840 840 841 841 841 841 841 841 841 841 841 842 842 842 842 841 841 841 840 839 841 842 845 844 841 844 846 842 841 841 841 841 841 841 841 841 841 842 842 842 841 841 841 842 843 842 842 841 840 840 840 839 838 837 837 836 835 834 833 831 830 829 828 827 825 824 823 821 819 818 816 814 812 810 808 806 805 803
835 836 836 837 838 839 839 840 840 840 840 840 841 841 841 841 841 841 841 842 842 842 842 841 841 841 841 841 841 841 841 842 845 847 847 845 842 841 841 841 841 842 841 841 841 841 841 841 841 842 843 843 843 842 841 840 840 839 838 837 837 836 835 834 833 832 831 830 829 828 826 825 824 822 821 819 817 815 814 812 810 808 806 805 803
834 835 836 836 837 838 838 839 840 840 840 840 840 840 840 841 841 841 842 842 842 842 842 842 842 842 842 842 842 842 842 843 843 845 848 849 845 841 840 841 841 841 841 841 840 840 841 840 840 841 841 843 843 842 841 840 839 839 838 837 836 835 835 834 833 832 831 830 828 827 826 825 824 822 821 819 817 815 814 812 810 808 807 805 803
834 834 835 836 836 837 838 838 839 839 840 840 840 840 840 841 841 841 842 842 842 843 843 843 843 843 843 843 843 843 842 843 843 843 845 848 848 843 840 841 841 840 840 840 840 840 840 840 840 840 840 841 842 841 840 840 839 838 837 836 835 835 834 833 832 831 830 829 828 827 826 825 823 822 820 819 817 815 814 812 810 809 807 805 803
833 834 835 835 836 837 837 838 838 838 839 839 839 840 840 840 841 842 842 842 843 843 843 843 843 843 844 844 844 843 843 843 843 844 844 846 847 844 841 841 841 840 840 840 840 840 840 840 840 840 840 841 841 840 839 839 838 837 836 835 835 834 834 833 832 831 830 829 828 827 826 825 823 821 820 818 816 815 814 812 810 809 807 805 803
832 833 834 835 835 836 836 837 838 838 838 839 839 839 840 840 841 841 842 842 843 843 843 843 843 843 843 843 843 843 843 842 842 844 844 845 846 845 842 841 841 840 839 839 840 839 839 839 840 840 840 840 840 838 838 838 837 836 835 835 834 833 833 832 831 830 829 828 828 826 825 824 823 821 819 818 816 815 813 811 810 808 807 805 803
831 832 833 834 834 835 836 836 837 837 838 838 839 839 839 840 840 841 841 842 842 843 843 843 843 843 843 842 842 842 842 842 842 843 844 844 845 846 844 842 842 840 839 839 839 839 839 839 839 839 839 840 839 837 836 836 836 836 835 834 833 833 832 831 830 829 829 828 827 826 825 823 822 820 819 817 816 814 812 811 809 808 806 804 803
829 830 831 832 833 833 834 835 836 837 837 837 838 838 839 839 840 840 841 841 842 842 842 843 843 843 842 842 842 842 842 841 842 842 843 844 846 845 844 843 842 841 839 839 838 838 839 838 838 838 838 838 838 836 834 834 835 835 834 833 832 832 831 830 829 829 828 827 826 825 824 822 821 820 818 817 815 814 812 810 809 807 805 804 802
828 828 829 830 831 832 833 834 835 836 836 837 837 838 838 839 839 840 840 841 841 842 842 842 842 842 842 842 842 842 842 842 842 842 843 845 846 844 844 843 842 840 839 839 838 838 838 837 838 838 837 836 836 835 833 832 834 834 834 832 831 831 830 829 829 828 827 826 825 824 823 822 820 819 818 817 815 814 812 810 809 807 805 804 802
826 827 828 829 830 830 831 833 833 834 835 835 836 837 837 838 838 839 839 840 840 841 841 841 841 842 841 842 842 842 842 842 842 842 842 842 842 842 842 842 843 841 839 839 838 838 838 838 838 838 837 836 835 833 833 833 834 834 833 831 830 829 829 828 828 827 826 825 825 824 823 821 820 819 818 816 815 814 812 810 809 807 805 804 802
825 826 827 827 828 829 830 831 832 833 833 834 835 836 836 837 837 838 838 839 840 840 841 841 841 841 841 841 841 841 841 841 841 841 841 840 840 840 840 841 843 844 842 841 839 838 839 838 838 838 837 836 835 834 833 833 833 832 831 830 829 828 828 827 827 826 825 824 824 823 822 821 820 818 817 816 815 814 812 811 809 808 806 804 802
823 824 825 826 827 828 828 829 830 831 832 833 833 834 835 836 836 837 837 838 839 839 839 840 840 840 840 840 840 840 841 841 841 840 840 840 839 840 840 839 841 843 845 845 842 838 838 838 836 836 836 836 835 834 834 833 832 831 830 829 828 827 827 826 825 825 824 823 823 822 822 821 820 818 817 816 815 813 812 811 809 808 806 804 803
821 822 823 824 825 827 827 828 829 829 830 831 832 833 834 834 835 836 836 836 837 838 838 839 839 839 839 839 839 839 839 839 840 840 839 839 838 838 839 838 839 840 841 844 843 838 837 837 836 836 836 835 835 834 833 832 831 830 829 829 828 827 826 825 824 824 823 822 822 822 821 821 819 818 817 816 814 813 812 810 809 808 806 805 803
820 821 822 823 824 825 826 827 828 828 829 830 831 831 832 833 834 834 834 835 835 836 837 837 837 838 838 838 838 838 838 838 838 838 838 837 838 837 837 837 837 838 838 840 841 838 836 837 836 836 835 834 834 833 833 832 831 830 829 828 828 826 825 824 823 822 822 821 821 821 821 821 820 818 817 816 815 813 812 810 809 808 806 805 803
819 819 820 821 822 823 824 826 826 827 827 828 829 830 830 831 832 833 833 833 833 834 835 835 835 836 836 836 837 836 837 837 837 837 836 836 836 836 836 836 836 837 837 837 838 837 836 836 836 835 835 834 833 833 832 831 831 830 829 828 827 825 824 822 821 821 821 821 821 821 821 820 819 818 817 816 815 814 812 811 809 808 806 805 804
817 818 819 820 821 822 823 824 824 825 826 826 827 828 828 829 830 831 831 831 832 832 833 834 834 834 834 834 835 835 835 836 836 835 835 835 835 834 834 834 834 835 836 836 836 835 835 835 835 834 834 833 832 832 832 831 830 829 828 827 826 825 823 822 821 821 821 821 821 821 821 820 819 818 817 816 816 814 813 812 810 808 807 805 804
815 816 817 818 819 820 821 822 823 823 824 824 826 827 827 827 828 829 829 830 830 831 831 832 832 833 833 833 833 834 834 834 834 834 834 833 833 833 833 833 833 834 834 834 834 834 834 834 834 834 833 832 832 831 831 830 829 828 827 827 826 825 824 823 822 822 822 822 822 822 821 820 819 818 817 817 816 815 814 813 811 809 808 806 804
813 814 815 816 817 818 819 820 821 822 822 823 824 825 825 826 826 827 828 828 828 829 830 830 831 831 832 832 832 833 833 833 833 833 832 832 832 832 832 833 833 833 834 834 833 833 833 833 833 832 832 831 831 830 830 829 828 828 827 826 825 825 824 824 823 823 823 823 823 823 822 821 820 819 818 817 816 816 815 813 812 810 808 807 805
811 812 813 814 815 816 817 818 819 820 821 821 822 823 824 825 825 825 826 826 827 827 828 829 829 830 830 831 831 831 832 832 832 832 832 832 832 832 832 832 832 833 833 833 833 833 833 832 832 831 831 830 830 829 828 828 827 827 826 825 825 825 825 824 823 823 824 824 825 825 824 822 821 819 818 817 816 816 815 814 812 811 809 808 806
809 810 811 812 813 814 815 816 817 818 819 820 821 822 823 823 824 824 825 825 825 826 826 827 828 828 829 829 830 830 831 831 831 831 832 831 831 831 832 832 832 832 832 832 833 832 832 832 831 831 830 830 829 828 827 826 825 825 824 824 825 824 824 823 823 822 823 824 827 829 827 824 822 820 819 818 816 816 815 814 813 812 810 809 808
808 809 809 810 811 812 813 814 815 817 818 819 819 820 821 822 822 823 823 823 824 824 825 825 826 826 827 827 828 828 829 829 829 830 831 831 830 831 831 831 831 831 831 831 832 832 831 831 831 830 829 829 828 826 826 825 824 823 823 823 823 823 823 823 822 822 822 821 823 828 828 824 822 821 819 818 817 816 815 814 813 812 811 810 809
806 807 808 809 810 811 812 813 814 815 816 817 818 819 820 821 821 822 822 822 822 823 823 823 824 824 825 825 826 826 827 827 827 828 828 829 830 830 829 829 829 830 830 830 831 830 829 830 830 829 828 828 827 826 824 824 823 822 822 821 821 821 821 821 822 822 823 820 819 824 826 824 822 821 819 818 817 816 815 814 813 812 811 810 810
805 806 806 807 809 809 810 811 813 814 815 816 817 818 819 819 820 820 821 821 821 821 822 822 823 823 823 823 824 824 825 825 825 825 826 827 828 828 828 828 828 829 829 829 829 828 828 829 829 829 828 827 826 825 824 823 823 822 821 820 820 820 820 820 821 821 822 819 819 822 824 822 821 820 818 818 817 816 815 814 813 812 811 811 810
805 805 805 806 808 809 809 810 811 812 814 815 815 817 817 817 818 819 820 820 820 820 820 821 821 821 822 822 822 822 822 822 823 823 823 824 825 825 826 826 827 827 826 827 827 827 827 828 828 828 827 826 825 824 824 823 823 822 821 820 820 819 819 819 819 820 819 818 819 821 822 820 820 819 818 817 817 816 815 814 813 812 811 811 811
807 805 805 805 807 808 808 809 810 811 811 812 813 815 816 815 816 817 818 819 819 818 819 820 819 819 820 821 821 821 821 821 821 821 822 823 823 823 823 824 824 824 824 825 825 825 825 826 826 827 826 825 824 823 823 822 822 822 821 820 820 819 818 817 818 817 817 817 818 820 820 819 819 818 817 817 816 816 815 814 813 812 811 811 811
807 807 806 805 805 807 808 808 809 809 809 810 811 813 814 814 814 815 815 817 817 816 816 818 818 818 818 819 820 820 820 820 819 820 820 821 821 821 821 822 822 823 823 823 823 823 823 823 823 824 824 824 823 822 822 822 820 820 820 820 819 818 817 817 816 815 815 815 816 817 817 817 817 817 817 816 815 815 815 814 813 812 811 811 811
805 808 808 806 805 806 807 808 808 807 807 809 809 811 812 812 812 813 814 815 815 815 815 816 817 816 816 817 818 818 818 818 818 819 819 819 819 819 819 819 819 820 821 821 821 821 821 821 821 821 820 821 821 821 821 820 818 818 819 818 818 818 817 816 815 814 813 814 814 814 815 815 815 816 815 815 814 814 814 813 812 812 811 811 810
802 804 806 807 807 806 806 807 807 806 807 808 808 809 810 810 811 811 812 813 813 814 815 815 815 815 815 816 816 816 816 816 816 817 817 817 817 817 817 817 816 817 817 817 818 818 819 819 819 817 817 818 818 818 818 818 817 817 817 817 817 817 816 815 814 813 813 812 813 813 813 813 814 814 814 813 813 813 812 812 812 812 812 811 810
802 802 804 807 809 807 806 807 807 807 806 807 807 808 809 809 809 810 810 810 811 812 813 813 813 813 814 814 814 815 815 815 815 815 815 815 815 815 815 814 814 814 814 814 814 815 815 816 816 815 814 815 815 815 816 816 816 816 815 815 815 815 814 814 813 813 813 812 812 811 811 811 812 812 812 811 811 811 811 811 811 811 811 811 810
803 802 803 804 806 806 805 806 806 806 805 805 806 806 807 807 808 808 809 809 809 809 810 810 811 812 812 813 814 814 815 815 815 814 813 813 813 812 812 812 812 812 811 812 812 812 812 812 812 811 811 811 812 811 813 813 813 813 813 813 813 813 813 812 812 812 812 812 811 810 810 810 809 809 809 809 810 810 810 810 810 810 810 810 810
800 800 800 801 801 802 803 804 805 805 804 804 805 805 805 806 806 806 808 808 808 808 809 809 810 810 812 813 814 814 814 815 816 814 813 812 812 811 811 810 809 809 808 809 810 810 810 809 809 808 807 807 808 808 809 810 810 810 810 811 811 811 811 810 810 811 811 810 810 809 809 808 808 807 807 808 808 808 809 809 809 809 809 810 809
799 799 799 799 799 799 800 802 803 803 803 803 804 804 804 804 805 805 806 807 808 808 808 808 808 808 810 812 813 813 813 813 814 812 811 811 811 810 810 808 807 806 805 806 807 807 807 806 806 805 804 804 804 804 806 808 808 808 809 809 809 808 808 808 808 809 809 808 808 808 808 807 806 806 806 806 807 807 807 808 809 809 808 808 809
798 799 798 797 797 798 799 800 801 801 802 802 803 803 803 803 804 804 805 806 806 806 806 806 806 806 807 809 810 811 811 810 810 809 809 808 808 809 808 807 805 804 803 804 804 804 804 803 803 803 802 802 801 801 801 802 803 805 807 808 807 805 804 805 805 806 807 807 807 807 806 806 805 805 805 805 806 806 806 807 808 808 808 808 808
797 798 796 795 796 796 797 798 799 800 800 801 802 802 802 802 802 803 804 804 805 805 805 805 805 805 806 806 808 809 809 809 809 808 806 806 806 806 806 805 804 802 802 802 802 801 801 800 800 800 799 798 798 798 797 798 799 802 803 804 805 803 800 801 802 803 804 805 805 805 805 805 805 804 804 805 805 806 806 806 807 807 807 807 807